{"data":{"norad_id":36508,"epoch":"2026-09-20T04:35:26.375136Z","epoch_age_seconds":44861,"freshness":"FRESH","line1":"1 36508U 10013A   26263.19127749  .00000122  00000+0  29446-4 0  9999","line2":"2 36508  92.0269 300.3681 0002301  85.6720 274.4750 14.51901705871869","mean_motion":14.51901705,"eccentricity":0.0002301,"inclination_deg":92.0269,"raan_deg":300.3681,"arg_perigee_deg":85.672,"mean_anomaly_deg":274.475,"bstar":2.9446e-5,"rev_number":87186,"period_min":99.18026785429,"perigee_km":717.8109601548,"apogee_km":721.07726698327,"semimajor_km":7097.581113569,"source":"CELESTRAK","updated_at":"2026-09-20T09:00:47.144167Z"}}